Weather in Haisyn

Ukraine / Vinnytsia Region     48˚48′39″N   29˚23′18″E
temp.,
°C
wind,
m/s
gust,
m/s
humid.,
%
clouds,
%
prec.,
mm/h
press.,
hPa
HPBL,
m
2 december, wed
wed223:00nne3691100 0.0 1027327
02:00nne3595100 0.1 1027267
05:00−1˚nne2495100 0.1 1026223
08:00−1˚ne249799 0.3 1026213
11:00+1˚e238094 0.1 1027480
14:00+2˚ese227595 0.1 1026564
17:00−1˚e239398 0.0 102644
20:00e119998 0.1 102677
3 december, thu
thu323:00+1˚se3698100 0.2 1025309
02:00+1˚se2598100 0.2 1025257
05:00+1˚se3597100 0.0 1024245
08:00+1˚ese359697 0.0 1025203
11:00+3˚sse469099 0.0 1024457
14:00+4˚sse468199 0.1 1023616
17:00+3˚se378590 0.0 1022295
20:00+3˚ese5109083 0.0 1022432
4 december, fri
fri423:00+4˚se5129391 0.1 1021463
02:00+5˚sse6139392 0.1 1021730
05:00+5˚se7129394 0.0 1020530
08:00+4˚se7139096 0.0 1020464
11:00+5˚se71481100 0.1 1020623
14:00+7˚se8137069 0.1 1019765
17:00+5˚se714809 0.0 1019517
20:00+3˚se8159130 0.0 1021470
5 december, sat
sat523:00+3˚sse7119590 0.0 1021565
02:00+4˚se6119295 0.0 1022391
05:00+4˚se6119298 0.0 1022411
08:00+3˚se7119398 0.0 1023534
11:00+4˚se6992100 0.0 1024537
14:00+4˚se71087100 0.0 1024536
17:00+4˚se61086100 0.0 1024536
20:00+3˚se71182100 0.0 1025552
6 december, sun
sun623:00+2˚se6128496 0.0 1026457
02:00se6118769 0.0 1026434
05:00−1˚ese6119040 0.0 1026430
08:00−1˚se6118756 0.0 1027467
11:00ese71174100 0.0 1026564
14:00+1˚se6106876 0.0 1025669
17:00ese5117810 0.0 1025600
20:00−1˚ese7136914 0.0 1025589